Regional Weather Roundup
Issued by NWS Portland, ME

Current Version | Previous Version | Text Only | Print | Product List | Glossary Off
Versions: 1 2 3 4 5 6 7 8 9 10 11 12 13 14 15 16 17 18 19 20 21 22 23 24 25 26 27 28 29 30 31 32 33 34 35 36 37 38 39 40 41 42 43 44 45 46 47 48 49 50
000 ASUS41 KGYX 221510 RWRGYX WEATHER ROUNDUP FOR MAINE AND NEW HAMPSHIRE NATIONAL WEATHER SERVICE GRAY ME 1100 AM EDT TUE AUG 22 2017 MEZ002-005-006-010-012-015-018-020-021-024-026-027-029-221600- MAINE CITY SKY/WX TMP DP RH WIND PRES REMARKS PORTLAND MOSUNNY 78 67 68 SE7 29.94F SANFORD SUNNY 82 70 66 VRB5 29.94F BAR HARBOR SUNNY 77 64 64 SW9 29.95F WISCASSET SUNNY 80 66 62 SE9 29.95F ROCKLAND SUNNY 73 66 78 S7 29.95F FRYEBURG SUNNY 81 69 67 SE7 29.94F LEWISTONAUBURN SUNNY 81 68 64 S6 29.93F AUGUSTA SUNNY 80 64 58 VRB6 29.94F WATERVILLE SUNNY 80 66 62 CALM 29.91F BANGOR MOSUNNY 84 64 50 SW8 29.93F GREENVILLE N/A 75 64 68 CALM 29.94F MILLINOCKET MOSUNNY 79 64 60 VRB5 29.94F HOULTON MOSUNNY 78 66 66 VRB5 29.92F PRESQUE ISLE PTSUNNY 75 62 64 S5 29.94F FRENCHVILLE MOSUNNY 72 55 55 SE8 29.92F CARIBOU CLOUDY 74 63 68 VRB3 29.92F $$ NHZ002-005-008-009-011-012-014-221600- NEW HAMPSHIRE CITY SKY/WX TMP DP RH WIND PRES REMARKS PORTSMOUTH MOSUNNY 83 70 64 S8 29.92F ROCHESTER SUNNY 82 69 64 VRB3 29.93F NASHUA MOSUNNY 82 72 71 VRB5 29.95F MANCHESTER PTSUNNY 81 67 62 SW9 29.93F CONCORD SUNNY 81 70 69 SE5 29.94F LACONIA SUNNY 78 69 73 CALM 29.94F PLYMOUTH FAIR 76 66 71 CALM 29.94F BERLIN SUNNY 82 60 47 S8 29.93F WHITEFIELD CLOUDY 80 65 59 CALM 29.93F JAFFREY MOSUNNY 77 70 79 VRB6 29.99F KEENE N/A N/A N/A N/A MISG N/A LEBANON MOSUNNY 80 69 69 SW9 29.91F MT WASHINGTON MOSUNNY 55 48 76 SW28G35 N/A $$ VTZ005-007-008-221600- VERMONT CITY SKY/WX TMP DP RH WIND PRES REMARKS ST JOHNSBURY N/A 76 68 76 MISG 29.89F MONTPELIER MOSUNNY 76 68 76 S13 29.95F BURLINGTON CLOUDY 78 69 73 S20G26 29.84F $$ MAZ007-012-024-CTZ003-RIZ002-NYZ038-NYZ072-221600- SOUTHERN NEW ENGLAND AND NY CITY SKY/WX TMP DP RH WIND PRES REMARKS BOSTON MOSUNNY 79 71 76 S13 29.96F WORCESTER CLOUDY 75 68 78 SW8 30.00F NANTUCKET PTSUNNY 74 72 93 SW16 30.03F PROVIDENCE PTSUNNY 81 73 76 S9 29.99F HARTFORD PTSUNNY 82 72 71 SW9 29.97F ALBANY MOSUNNY 79 70 74 S9 29.92F NEW YORK CITY PTSUNNY 82 74 76 SW10 29.98F $$ ANZ081-ANZ082-ANZ150-NHZ014-MEZ023>029-221600- COASTAL MARINE OBSERVATIONS STATION/POSITION TIME TEMP WIND PRES WAVE AIR SEA DIR/SP/G HT/PER (UTC) (F) (DEG/KT/KT) (MB) (FT/S) MOUNT DESERT ROC 1400 61 1014.8F MATINICUS ROCK 1400 65 210/ 18/ 18 1014.4F ISLE OF SHOALS 1400 70 170/ 11/ 12 1014.1F JEFFREYS LEDGE 1436 66 N/A 2/14 CASHES LEDGE BUO 1450 73 69 1014.5F 2/ 4 GEORGES BANK BUO 1350 67 65 1018.2 2/ 5 $$ .............KEY.............. WCI - WIND CHILL TC - TEMPERATURE IN CELSIUS VSB - VISIBILITY IN MILES HX - HEAT INDEX FAIR- INDICATES FEW OR NO CLOUDS BELOW 12,000 FT, WITH NO SIGNIFICANT WEATHER AND/OR OBSTRUCTIONS TO VISIBILITY.

USA.gov is the U.S. government's official web portal to all federal, state and local government web resources and services.